TimeEDT,TemperatureF,Dew PointF,Humidity,Sea Level PressureIn,VisibilityMPH,Wind Direction,Wind SpeedMPH,Gust SpeedMPH,PrecipitationIn,Events,Conditions,WindDirDegrees,DateUTC
1:53 AM,62.1,57.0,84,29.94,10.0,South,13.8,21.9,0.02,,Overcast,170,2012-10-14 05:53:00
2:53 AM,62.1,57.0,84,29.94,10.0,South,12.7,-,N/A,,Overcast,170,2012-10-14 06:53:00
3:53 AM,63.0,57.0,81,29.93,10.0,South,12.7,20.7,N/A,,Scattered Clouds,170,2012-10-14 07:53:00
4:53 AM,63.0,55.9,78,29.92,10.0,South,11.5,-,N/A,,Partly Cloudy,170,2012-10-14 08:53:00
5:53 AM,64.0,55.9,75,29.92,10.0,South,15.0,-,N/A,,Mostly Cloudy,180,2012-10-14 09:53:00
6:53 AM,64.9,55.9,73,29.92,10.0,South,17.3,23.0,N/A,,Mostly Cloudy,180,2012-10-14 10:53:00
7:53 AM,64.9,57.0,75,29.92,10.0,South,13.8,24.2,N/A,,Scattered Clouds,170,2012-10-14 11:53:00
8:53 AM,66.0,55.9,70,29.91,10.0,South,12.7,24.2,N/A,,Mostly Cloudy,180,2012-10-14 12:53:00
9:53 AM,66.9,57.0,70,29.89,10.0,South,18.4,26.5,N/A,,Clear,180,2012-10-14 13:53:00
10:53 AM,70.0,57.9,65,29.87,10.0,South,21.9,29.9,N/A,,Clear,190,2012-10-14 14:53:00
11:53 AM,71.1,57.0,61,29.84,10.0,SSW,18.4,29.9,N/A,,Partly Cloudy,200,2012-10-14 15:53:00
12:53 PM,72.0,55.9,57,29.80,10.0,South,18.4,28.8,N/A,,Clear,180,2012-10-14 16:53:00
1:53 PM,75.0,57.0,53,29.74,10.0,SSW,20.7,33.4,N/A,,Clear,200,2012-10-14 17:53:00
2:53 PM,73.9,57.0,55,29.72,10.0,South,15.0,33.4,N/A,,Clear,190,2012-10-14 18:53:00
4:53 PM,71.1,59.0,66,29.69,10.0,South,10.4,-,0.00,Rain,Light Rain,180,2012-10-14 20:53:00
5:53 PM,66.9,60.1,79,29.69,9.0,South,18.4,28.8,0.06,Rain,Light Rain,180,2012-10-14 21:53:00
6:53 PM,68.0,59.0,73,29.65,10.0,South,19.6,26.5,N/A,,Partly Cloudy,170,2012-10-14 22:53:00
7:53 PM,64.9,60.1,84,29.63,4.0,SSW,16.1,33.4,0.04,Rain,Heavy Rain,200,2012-10-14 23:53:00
8:53 PM,66.0,59.0,78,29.60,10.0,SSE,11.5,21.9,0.00,,Scattered Clouds,160,2012-10-15 00:53:00
9:53 PM,68.0,57.0,68,29.58,10.0,South,19.6,32.2,N/A,,Scattered Clouds,190,2012-10-15 01:53:00
10:53 PM,66.9,57.0,70,29.56,10.0,South,18.4,28.8,N/A,,Partly Cloudy,190,2012-10-15 02:53:00
11:53 PM,66.9,57.0,70,29.55,10.0,SSW,19.6,27.6,N/A,,Mostly Cloudy,210,2012-10-15 03:53:00